Weather History for Paducah, KY

Change the Weather History Date:

Sunday, January 12, 2014

  Actual Average Record
Temperature  
Mean Temperature 43 °F 34 °F  
Max Temperature 56 °F 43 °F 69 °F (1995)
Min Temperature 29 °F 26 °F -2 °F (1977)
Degree Days  
Heating Degree Days 22 31  
Month to date heating degree days 415 369  
Since 1 July heating degree days 2075 2000  
Cooling Degree Days 0 0  
Month to date cooling degree days 0 0  
Year to date cooling degree days 0 0  
Moisture  
Dew Point 32 °F    
Average Humidity 68    
Maximum Humidity 92    
Minimum Humidity 43    
Precipitation  
Precipitation 0.00 in 0.11 in 3.16 in (2013)
Month to date precipitation 1.94 1.43  
Year to date precipitation 1.94 1.43  
Snow  
Snow 0.00 in 0.10 in 4.00 in (1982)
Month to date snowfall 1.1 1.1  
Since 1 July snowfall 6.3 3.4  
Snow Depth 0.00 in    
Sea Level Pressure  
Sea Level Pressure 29.96 in    
Wind  
Wind Speed 9 mph (SSW)    
Max Wind Speed 20 mph    
Max Gust Speed 27 mph    
Visibility 10 miles    
Events      
T = Trace of Precipitation, MM = Missing Value Source: NWS Daily Summary

Daily Weather History Graph

Daily Weather History Graph

Search for Another Location

Airport:

Trip Planner

Search our weather history database for the weather conditions in past years. The results will help you decide how hot, cold, wet, or windy it might be!

Date:

Astronomy

Jan. 12, 2014 Rise Set
Actual Time 7:08 AM CST 4:58 PM CST
Civil Twilight 6:39 AM CST 5:27 PM CST
Nautical Twilight 6:07 AM CST 5:59 PM CST
Astronomical Twilight 5:36 AM CST 6:30 PM CST
Moon 2:26 PM CST (1/12) 4:07 AM CST (1/12)
Length of Visible Light 10h 47m
Length of Day
9h 50m
Waxing Gibbous, 90% of the Moon is Illuminated
Jan 12
Waxing Gibbous
Jan 15
Full
Jan 23
Last Quarter
Jan 30
New
Feb 6
First Quarter

Hourly Weather History & Observations

Time (CST) Temp. Windchill Dew Point Humidity Pressure Visibility Wind Dir Wind Speed Gust Speed Precip Events Conditions
12:53 AM 37.0 °F 31.0 °F 30.9 °F 79% 29.97 in 10.0 mi WSW 8.1 mph - N/A   Clear
1:53 AM 37.0 °F 32.4 °F 30.0 °F 76% 29.97 in 10.0 mi SW 5.8 mph - N/A   Clear
2:53 AM 35.1 °F 30.1 °F 28.9 °F 78% 29.99 in 10.0 mi SW 5.8 mph - N/A   Clear
3:53 AM 32.0 °F 26.4 °F 28.0 °F 85% 30.01 in 10.0 mi SW 5.8 mph - N/A   Clear
4:53 AM 33.1 °F 27.7 °F 28.9 °F 85% 30.02 in 10.0 mi SSW 5.8 mph - N/A   Clear
5:53 AM 28.9 °F 23.9 °F 26.1 °F 89% 30.04 in 10.0 mi SW 4.6 mph - N/A   Clear
6:53 AM 34.0 °F 28.8 °F 30.0 °F 85% 30.05 in 10.0 mi South 5.8 mph - N/A   Clear
7:53 AM 35.1 °F 31.0 °F 30.9 °F 85% 30.06 in 10.0 mi South 4.6 mph - N/A   Clear
8:53 AM 39.0 °F 35.7 °F 33.1 °F 79% 30.08 in 10.0 mi SSW 4.6 mph - N/A   Clear
9:53 AM 43.0 °F 38.8 °F 35.1 °F 74% 30.08 in 10.0 mi SW 6.9 mph - N/A   Clear
10:53 AM 46.9 °F - 36.0 °F 66% 30.05 in 10.0 mi South 8.1 mph - N/A   Clear
11:53 AM 50.0 °F - 35.1 °F 57% 30.01 in 10.0 mi South 12.7 mph 20.7 mph N/A   Clear
12:53 PM 52.0 °F - 34.0 °F 50% 29.98 in 10.0 mi South 9.2 mph - N/A   Clear
1:53 PM 54.0 °F - 34.0 °F 47% 29.94 in 10.0 mi SSW 12.7 mph 18.4 mph N/A   Clear
2:53 PM 55.9 °F - 34.0 °F 44% 29.94 in 10.0 mi South 10.4 mph 19.6 mph N/A   Clear
3:53 PM 55.0 °F - 34.0 °F 45% 29.93 in 10.0 mi South 10.4 mph - N/A   Clear
4:53 PM 52.0 °F - 34.0 °F 50% 29.91 in 10.0 mi SSE 11.5 mph - N/A   Clear
5:53 PM 50.0 °F - 34.0 °F 54% 29.91 in 10.0 mi SSE 11.5 mph - N/A   Clear
6:53 PM 51.1 °F - 33.1 °F 50% 29.90 in 10.0 mi SSE 12.7 mph - N/A   Clear
7:53 PM 51.1 °F - 33.1 °F 50% 29.88 in 10.0 mi South 15.0 mph 24.2 mph N/A   Clear
8:53 PM 51.1 °F - 33.1 °F 50% 29.89 in 10.0 mi South 9.2 mph - N/A   Clear
9:53 PM 51.1 °F - 33.1 °F 50% 29.88 in 10.0 mi South 12.7 mph 19.6 mph N/A   Clear
10:53 PM 52.0 °F - 33.1 °F 49% 29.87 in 10.0 mi South 12.7 mph 21.9 mph N/A   Clear
11:53 PM 55.0 °F - 33.1 °F 43% 29.84 in 10.0 mi SSW 10.4 mph 20.7 mph N/A   Clear